This demonstration page uses our WeatherBlox Daily Observations layout. Learn more.

Left ArrowRight Arrow

Hourly Observations for September 3, 2019

Temp ( °F °C ) Dew Point ( °F °C ) Humidity (%) Winds ( mph kmh ) Pressure ( in mb ) Visibility ( mi km ) Precip ( " mm )
12:53 am 00:53 Clear 72 22.2 66 18.9 82 82 Calm 29.98 1015 10 16 0.00 0.00
1:53 am 01:53 Clear 70 21.1 65 18.3 84 84 Calm 29.97 1015 10 16 0.00 0.00
3:53 am 03:53 Clear 69 20.6 65 18.3 87 87 Calm 29.96 1014 10 16 0.00 0.00
4:53 am 04:53 Clear 69 20.6 66 18.9 90 90 Calm 29.96 1015 10 16 0.00 0.00
5:53 am 05:53 Mostly Cloudy 68 20 65 18.3 90 90 Calm 29.97 1015 10 16 0.00 0.00
6:53 am 06:53 Clear 68 20 65 18.3 90 90 Calm 29.98 1015 10 16 0.00 0.00
7:53 am 07:53 Sunny 69 20.6 66 18.9 90 90 Calm 30.01 1016 10 16 0.00 0.00
8:53 am 08:53 Sunny 76 24.4 67 19.4 74 74 NNE 5 7 30.01 1016 10 16 0.00 0.00
9:53 am 09:53 Sunny 81 27.2 67 19.4 62 62 NE 3 6 30.01 1016 10 16 0.00 0.00
10:53 am 10:53 Sunny 85 29.4 67 19.4 55 55 undefined N/A 30.02 1017 10 16 0.00 0.00
11:53 am 11:53 Sunny 88 31.1 65 18.3 46 46 ENE 9 15 30.01 1016 10 16 0.00 0.00
12:53 pm 12:53 Mostly Sunny 91 32.8 64 17.8 41 41 N 6 9 29.99 1016 10 16 0.00 0.00
1:53 pm 13:53 Partly Cloudy 91 32.8 63 17.2 39 39 NNE 9 15 29.98 1015 10 16 0.00 0.00
2:53 pm 14:53 Mostly Cloudy 91 32.8 59 15 34 34 E 6 9 29.96 1014 10 16 0.00 0.00
3:53 pm 15:53 Mostly Sunny 94 34.4 61 16.1 33 33 ENE 8 13 29.94 1014 10 16 0.00 0.00
4:53 pm 16:53 Partly Cloudy 94 34.4 59 15 31 31 E 8 13 29.92 1013 10 16 0.00 0.00
5:53 pm 17:53 Partly Cloudy 92 33.3 61 16.1 36 36 NNE 8 13 29.92 1013 10 16 0.00 0.00
6:53 pm 18:53 Sunny 92 33.3 60 15.6 34 34 ENE 8 13 29.93 1013 10 16 0.00 0.00
7:53 pm 19:53 Sunny 89 31.7 62 16.7 41 41 Calm 29.93 1014 10 16 0.00 0.00
8:53 pm 20:53 Clear 79 26.1 66 18.9 65 65 Calm 29.95 1014 10 16 0.00 0.00
9:53 pm 21:53 Clear 78 25.6 65 18.3 64 64 Calm 29.96 1015 10 16 0.00 0.00
10:53 pm 22:53 Clear 76 24.4 65 18.3 69 69 Calm 29.97 1015 10 16 0.00 0.00
11:53 pm 23:53 Clear 76 24.4 65 18.3 69 69 Calm 29.97 1015 10 16 0.00 0.00

Powered by AerisWeather